Regional Weather Roundup
Issued by NWS

Home | Current Version | Previous Version | Graphics & Text | Print | Product List | Glossary On
Versions: 1 2 3 4 5 6 7 8 9 10 11 12 13 14 15 16 17 18 19 20 21 22 23 24 25 26 27 28 29 30 31 32 33 34 35 36 37 38 39 40 41 42 43 44 45 46 47 48 49 50
000
ASUS43 KLOT 241912
RWRIL

ILLINOIS REGIONAL WEATHER ROUNDUP
NATIONAL WEATHER SERVICE CHICAGO/ROMEOVILLE IL
100 PM CST FRI FEB 24 2017

NOTE: "FAIR" INDICATES FEW OR NO CLOUDS BELOW 12,000 FEET WITH NO
SIGNIFICANT WEATHER AND/OR OBSTRUCTIONS TO VISIBILITY.

* THESE STATIONS ARE NOT UNDER NWS QUALITY CONTROL. THEY ALSO MAY NOT
  REPORT WEATHER SUCH AS PRECIPITATION OR FOG.

ILZ001-002-007-009-015-016-024-242000-
NORTHWEST ILLINOIS

CITY           SKY/WX    TMP DP  RH WIND       PRES   REMARKS
MOLINE         CLOUDY    41  36  82 NW7       29.52R HAZE
STERLING*      CLOUDY    39  38  96 N9        29.48S FOG     WCI  33
$$

ILZ003-004-008-010-011-017-018-242000-
NORTH CENTRAL ILLINOIS

CITY           SKY/WX    TMP DP  RH WIND       PRES   REMARKS
ROCKFORD       DRIZZLE   38  35  89 NE14      29.49S FOG     WCI  30
FREEPORT*      CLOUDY    34  34  98 N12       29.51S FOG     WCI  26
ROCHELLE*      CLOUDY    38  37  97 N13       29.47R FOG     WCI  30
DE KALB*       CLOUDY    39  38  97 NE15      29.44F WCI  31
PERU*          CLOUDY    45  43  93 W8        29.47R FOG
$$

ILZ005-006-012>014-019>023-242000-
NORTHEAST ILLINOIS

CITY           SKY/WX    TMP DP  RH WIND       PRES   REMARKS
CHICAGO-OHARE  CLOUDY    39  36  89 N16       29.44F WCI  30
CHICAGO-MIDWAY CLOUDY    40  37  89 N9        29.44F
AURORA         CLOUDY    42  40  92 NE10      29.44F
LANSING*       CLOUDY    40  40 100 N9        29.44F FOG
JOLIET*        CLOUDY    47  45  91 N6        29.42F FOG
WAUKEGAN       CLOUDY    37  36  96 N10G21    29.45F FOG     WCI  30
DUPAGE AIRPORT CLOUDY    40  37  89 NE14      29.43F
KANKAKEE*      CLOUDY    68  56  64 SW20G29   29.42F
WHEELING       CLOUDY    37  35  92 N10       29.47F WCI  30
MORRIS*        CLOUDY    47  45  92 N6        29.42S FOG
ROMEOVILLE*    CLOUDY    42  42 100 NE6       29.43F FOG
NORTHERLY ISL    N/A     38  37  97 MISG        N/A
$$

LMZ740>746-242000-
SOUTHERN LAKE MICHIGAN

STATION/POSITION SKY/WX   TEMP    WIND        PRES    VSBY  WAVE
                          AIR SEA DIR/SP/G                  HT/PER
                          (F)     (DEG/KT/KT) (MB)    (MI)  (FT/S)
HARRISON CRIB              37     330/ 17/ 19   N/A
BURNHAM HARBOR             39     360/  9/ 15   N/A
CALUMET HARBOR             37     330/ 10/ 17  996.8F
BURNS HARBOR               37     260/  4/  6  998.0F
MICHIGAN CITY              36     210/  9/ 10   N/A
$$

ILZ025>027-034>036-040-047-049-050-058-095>099-242000-
WEST-CENTRAL ILLINOIS

CITY           SKY/WX    TMP DP  RH WIND       PRES   REMARKS
QUINCY         CLOUDY    44  39  82 W15       29.59R
GALESBURG*     CLOUDY    41  41  99 W13       29.53R
MACOMB*        CLOUDY    42  40  93 W18       29.57R
JACKSONVILLE*  CLOUDY    49  41  73 W17G24    29.57R
PITTSFIELD*    CLOUDY    48  41  76 W15G23    29.60R
$$

ILZ028>032-037-038-041>044-048-051>054-059>061-242000-
CENTRAL ILLINOIS

CITY           SKY/WX    TMP DP  RH WIND       PRES   REMARKS
PONTIAC        PTSUNNY   61  54  78 W22G28    29.46R
BLOOMINGTON    PTSUNNY   55  47  74 W22G31    29.48R
DECATUR        CLOUDY    57  48  72 W14G24    29.52R
PEORIA         CLOUDY    46  43  89 W13G21    29.51S
LACON*         CLOUDY    46  44  92 W17G23    29.48R
LINCOLN*       CLOUDY    55  46  70 W8G22     29.52R
SPRINGFIELD    CLOUDY    52  43  71 W21       29.55R
TAYLORVILLE    CLOUDY    54  48  81 W22       29.54R
$$

ILZ033-039-045-046-055>057-062-063-242000-
EAST-CENTRAL ILLINOIS

CITY           SKY/WX    TMP DP  RH WIND       PRES   REMARKS
CHAMPAIGN      CLOUDY    62  51  67 W25G31    29.48R
RANTOUL*       CLOUDY    65  55  70 W18G33    29.46S
MATTOON        CLOUDY    67  55  65 SW13G24   29.49F
PARIS*         CLOUDY    67  56  68 S22       29.50F
$$

ILZ079-100>102-242000-
SOUTHWEST ILLINOIS

CITY           SKY/WX    TMP DP  RH WIND       PRES   REMARKS
ALTON          CLOUDY    52  45  76 W14G23    29.60R
BELLEVILLE     CLOUDY    58  50  74 W10G20    29.57R
CAHOKIA*       CLOUDY    56  44  64 W9G20     29.60R
SPARTA*        CLOUDY    63  52  67 W10G16    29.58R
$$

ILZ064>066-069>071-074>076-080>082-084>086-088>090-092>094-242000-
SOUTH-CENTRAL ILLINOIS

CITY           SKY/WX    TMP DP  RH WIND       PRES   REMARKS
CARBONDALE     CLOUDY    68  56  65 SW18G24   29.56S
CAIRO*         CLOUDY    66  56  69 SW18G30   29.61R
EFFINGHAM*     CLOUDY    67  55  67 SW16G24   29.52F
MARION         CLOUDY    72  55  56 SW14G24   29.57S
MT. VERNON     CLOUDY    68  55  63 S18       29.54F
CENTRALIA*     CLOUDY    68  56  65 SW16      29.53S
SALEM*         CLOUDY    69  54  58 SW21G28   29.53S
METROPOLIS*    CLOUDY    70  55  58 SW13G23   29.60S
$$

ILZ067-068-072-073-078-083-087-091-242000-
SOUTHEAST ILLINOIS

CITY           SKY/WX    TMP DP  RH WIND       PRES   REMARKS
LAWRENCEVILLE  CLOUDY    69  53  56 SW18      29.53F
FLORA*         CLOUDY    69  55  59 SW17G23   29.52F
FAIRFIELD*     CLOUDY    68  54  60 SW12G18   29.53F
HARRISBURG*    CLOUDY    69  55  61 SW16G26   29.55F
ROBINSON*      CLOUDY    68  56  65 SW17G23   29.53S THUNDER
CARMI*         PTSUNNY   71  54  54 SW20G25   29.54F
$$

ABBREVIATIONS USED IN REMARKS
   TC - TEMPERATURE IN CELSIUS
  WCI - WIND CHILL INDEX
   HX - HEAT INDEX
  VSB - VISIBILITY
$$





USA.gov is the U.S. government's official web portal to all federal, state and local government web resources and services.